Torna al catalogo

THORAD AGENA D DEB

AttivoPO
NORAD 4857·DEBRIS·🇺🇸 United States

Lanciato Apr 8, 1970 da Vandenberg Space Force Base

Loading…

Prossimi Passaggi (prossime 24 ore)

TLE

AggiornatoSource: Space-Track

Epoca: Sep 14, 2026, 05:23 UTC

1 04857U 70025EM  26257.22433975  .00001681  00000-0  66324-3 0  9995
2 04857  99.7322 173.4454 0042200 211.8569 148.0056 14.30198192835688

Traccia THORAD AGENA D DEB in tempo reale con AllMySat

Download on the App Store